{"data":{"norad_id":55803,"intl_designator":"2023-029H","name":"ONEWEB-0639","alt_names":[],"object_type":"PAYLOAD","status":"ACTIVE","operator":null,"country":"UK","launch_date":"2023-03-09","launch_site_code":"AFETR","launch_vehicle":null,"mission":null,"orbit_class":"UNKNOWN","rcs_meters":null,"size_class":null,"mass_kg":null,"dimensions":null,"purposes":["comms"],"wikipedia_slug":null,"has_3d_model":false,"image_url":null,"decayed_at":null,"tle_current":{"epoch":"2026-05-24T23:36:24.647040Z","epoch_age_seconds":86940,"freshness":"FRESH","line1":"1 55803U 23029H   26144.98361860 -.00000087  00000+0 -25016-3 0  9998","line2":"2 55803  87.9150 309.6021 0001020  68.3342 291.7899 13.19725947155849","mean_motion":13.19725947,"eccentricity":0.000102,"inclination_deg":87.915,"raan_deg":309.6021,"arg_perigee_deg":68.3342,"mean_anomaly_deg":291.7899,"bstar":-0.00025016,"rev_number":15584,"period_min":109.11356280244,"perigee_km":1184.9954153578,"apogee_km":1186.5384517602,"semimajor_km":7563.903933559,"source":"CELESTRAK","updated_at":"2026-05-25T13:38:22.689837Z"}}}